Wind_Speed
20 20 19 19 19 19 19 19 19 19 18 18 18 17 16 15 15 15 15 15 14 14 14 14 13 13 12 11 11 11 10 10 10 10 10 10 10 10 10 10 10 10 9 10
20 20 20 20 19 20 20 20 20 19 19 19 19 18 17 17 17 16 16 16 16 16 15 16 15 14 14 13 13 12 12 11 11 11 11 11 11 11 11 12 11 11 11 10
21 21 21 22 20 21 20 20 20 20 20 20 19 19 18 18 19 18 18 18 18 18 17 16 16 16 16 15 15 15 14 13 13 13 13 13 13 13 13 13 13 13 13 12
23 23 24 22 21 22 22 21 20 20 20 21 20 20 19 19 20 20 19 19 19 18 17 18 18 18 18 17 17 16 16 15 15 14 15 15 15 14 14 14 13 13 13 14
25 26 26 24 23 23 23 23 22 22 22 21 20 20 19 19 20 20 20 19 19 18 18 19 19 19 19 19 18 18 18 18 17 17 17 16 15 15 15 15 14 14 14 14
27 27 28 25 24 24 25 25 24 23 23 22 21 20 20 20 20 21 21 21 20 19 19 20 20 20 20 20 20 20 20 20 20 19 18 17 17 17 17 16 16 16 16 16
28 29 28 27 25 26 26 26 25 24 24 23 22 21 21 20 20 21 21 21 21 20 20 21 21 21 21 22 21 21 21 21 21 21 20 20 20 19 19 19 18 18 18 17
29 29 28 27 27 27 27 26 26 25 24 24 23 22 21 21 21 21 21 21 21 21 22 22 22 22 22 23 23 22 22 22 22 22 22 22 21 21 21 20 20 19 19 19
28 27 27 26 26 27 27 27 26 26 25 25 24 23 23 22 22 22 22 22 22 22 23 23 24 24 24 24 24 23 23 23 23 23 24 24 23 22 22 22 22 21 21 21
27 26 26 25 25 25 26 26 26 26 26 26 26 25 24 24 24 24 23 23 23 23 23 24 25 25 25 25 25 25 25 25 25 25 25 26 25 24 24 24 23 23 22 22
26 25 24 25 25 24 24 24 24 25 25 26 27 27 27 26 26 25 25 24 24 23 24 25 26 26 26 26 26 26 26 27 27 27 27 27 28 27 27 26 26 25 25 24
26 24 24 24 25 25 25 25 25 26 27 27 27 28 27 27 26 26 26 26 25 25 25 25 26 26 26 26 26 27 28 28 29 29 28 28 28 28 28 28 28 27 27 27
24 24 24 24 24 25 26 26 26 27 28 28 28 28 28 27 27 27 27 27 27 26 26 26 27 27 27 27 27 28 28 28 28 29 29 29 29 28 28 28 28 29 29 29
23 23 24 24 24 25 25 26 27 27 28 28 28 29 29 28 27 27 27 27 27 27 27 27 27 27 27 27 28 28 28 28 28 28 28 29 29 29 29 29 29 30 30 30
24 24 24 25 26 26 26 26 27 27 27 28 29 29 28 27 27 27 27 27 27 28 27 28 28 28 27 28 29 29 29 29 29 29 29 30 30 30 31 31 31 31 31 31
25 25 24 25 25 25 26 26 27 27 28 28 28 28 28 28 27 27 27 27 28 28 28 28 28 28 28 29 29 29 30 30 31 31 31 31 31 31 32 33 33 33 33 33
25 25 24 24 25 25 25 26 26 27 27 27 27 28 28 28 28 27 27 28 28 28 28 28 29 29 29 29 30 30 31 32 32 32 32 32 33 33 34 34 35 35 35 34
25 25 25 24 24 24 24 25 25 26 26 27 26 27 27 27 28 27 28 28 28 28 29 29 30 30 30 30 31 32 32 33 33 34 34 34 34 35 35 35 35 35 36 36
25 25 26 26 25 25 25 24 25 26 27 27 27 27 27 28 28 28 28 29 29 29 30 30 31 32 32 32 32 33 33 33 34 34 35 35 35 36 36 37 37 37 37 37
25 25 26 26 26 26 25 25 25 25 26 26 27 27 27 28 28 28 29 29 29 30 31 32 32 32 32 33 32 33 33 33 34 34 35 35 36 37 38 38 38 38 38 38
26 26 26 26 26 26 26 25 25 25 25 26 26 27 27 27 28 28 28 28 29 30 31 31 31 32 32 32 32 32 32 32 33 34 35 36 36 37 37 38 39 39 38 39
27 27 27 27 26 26 25 25 25 25 25 25 25 26 26 26 27 27 27 28 29 29 30 30 30 30 30 31 31 31 31 31 32 33 34 35 36 36 37 38 38 38 38 38
27 27 27 26 26 25 24 24 24 25 25 25 25 25 26 27 27 27 27 28 28 29 29 29 29 29 30 31 31 31 31 32 32 33 34 35 36 36 37 37 37 38 38 39
27 27 27 26 26 25 25 25 26 26 25 25 25 26 26 27 28 28 28 29 29 30 30 30 31 31 31 32 32 32 33 33 33 34 35 35 36 36 36 36 37 37 38 39
27 27 27 27 27 27 27 27 26 26 27 26 27 27 27 27 28 28 29 30 30 31 31 31 31 31 32 32 33 33 33 34 35 35 36 36 36 36 36 36 36 37 38 39
27 27 27 28 28 29 29 28 28 28 28 28 28 29 29 29 29 29 29 29 30 30 30 31 32 32 33 33 34 34 34 35 35 36 37 37 37 36 36 35 35 37 38 39
27 27 27 27 28 28 29 29 29 29 29 29 29 30 30 30 30 30 30 31 31 31 31 31 32 32 33 34 34 34 35 35 36 37 37 36 36 36 37 37 37 37 38 39
Wind_Direction
246 247 249 251 250 252 255 257 261 265 267 269 270 270 268 268 268 270 269 269 269 269 271 269 270 269 270 273 272 270 271 272 273 274 275 278 276 277 279 282 283 284 284 285
250 249 249 249 250 253 255 257 260 263 266 268 268 268 266 265 266 268 269 268 268 267 266 267 266 266 266 268 266 265 267 268 269 272 273 274 275 279 280 280 279 280 281 281
251 253 252 250 250 253 255 258 260 262 264 266 267 267 266 265 264 265 267 267 267 266 265 266 264 265 265 266 265 264 265 266 269 270 270 273 274 275 278 277 277 278 277 274
253 254 254 255 254 255 256 259 261 262 263 265 266 265 264 263 263 264 264 264 264 264 264 265 266 264 265 267 267 266 266 265 266 268 270 274 275 273 273 273 275 277 276 274
253 255 257 257 256 257 258 259 260 261 262 264 265 264 264 264 263 264 265 265 264 264 264 265 266 265 264 266 267 267 268 266 265 268 270 272 272 270 270 271 272 273 274 275
256 257 257 257 257 258 260 258 258 260 261 262 262 263 265 266 265 265 266 265 264 264 264 265 266 266 265 265 266 267 267 266 265 266 269 270 269 267 268 269 271 272 273 274
256 258 259 258 257 258 258 258 258 259 261 262 261 262 265 267 267 266 266 265 263 264 264 265 265 266 266 266 267 265 265 265 264 266 267 267 267 267 268 268 270 272 273 275
257 258 259 259 258 259 259 258 258 259 260 261 261 262 264 266 266 266 265 264 264 264 264 266 267 267 266 266 265 265 266 265 264 264 264 264 265 266 267 268 268 270 272 274
258 259 258 258 258 258 258 257 257 258 259 260 261 262 263 264 265 265 265 264 265 265 264 266 267 266 265 265 265 266 267 265 264 265 264 262 263 265 266 267 268 268 269 272
258 259 259 258 257 258 259 258 258 257 257 258 259 261 263 263 264 266 266 266 266 265 265 266 266 267 265 264 264 264 265 266 265 265 265 264 264 265 265 266 267 268 268 270
258 258 258 258 258 259 259 259 258 258 258 259 260 260 262 264 265 264 265 266 266 266 266 265 266 267 267 265 264 264 265 267 267 266 266 266 265 264 264 264 266 268 268 270
257 258 258 258 258 259 260 260 259 259 260 261 261 260 261 262 263 263 263 265 266 266 266 266 267 266 265 264 264 264 265 266 266 266 266 266 267 266 265 264 265 267 268 269
256 256 257 258 259 260 261 261 261 261 260 260 261 261 261 261 261 262 262 263 265 266 267 267 268 268 266 265 266 266 266 267 266 265 265 266 266 266 265 265 265 267 269 270
254 257 259 259 260 263 263 262 263 263 262 260 260 261 261 260 260 261 262 263 264 265 267 267 268 268 268 267 268 268 267 267 267 266 265 266 267 267 266 266 267 268 270 270
254 258 261 262 263 265 265 264 264 264 263 261 259 259 259 259 260 261 262 262 263 265 266 266 267 268 268 269 269 269 268 267 268 267 267 268 269 268 268 268 268 269 270 270
254 256 260 262 263 264 264 264 264 263 263 262 258 257 259 260 259 260 261 263 264 265 266 267 267 268 268 270 270 269 269 269 269 268 269 270 270 270 270 269 268 268 269 270
256 258 260 262 263 265 264 263 263 262 261 259 257 257 259 261 261 261 261 263 265 265 266 268 269 269 269 269 269 270 271 271 270 270 270 271 271 270 271 270 269 267 267 269
256 258 260 262 264 265 265 264 262 261 261 259 258 259 260 262 262 262 262 264 265 266 267 269 270 271 271 271 271 271 272 272 272 272 271 271 272 272 271 271 270 268 267 268
257 258 261 263 263 265 265 265 264 263 261 259 260 261 260 261 262 264 264 265 266 268 269 271 272 273 273 272 273 273 273 273 273 272 272 273 273 273 273 272 270 269 269 269
257 259 261 263 263 264 264 265 265 264 263 263 262 261 261 262 264 266 267 268 268 270 271 271 272 273 274 274 274 275 275 275 274 274 274 275 275 274 273 273 272 270 269 269
257 259 260 261 262 263 263 263 264 265 264 263 262 261 262 263 264 265 266 267 269 271 272 273 274 274 275 275 276 276 276 277 277 275 276 277 277 276 275 274 272 271 270 270
258 258 260 261 263 263 263 262 262 263 264 263 262 261 261 263 265 266 266 267 270 272 274 274 274 274 275 276 277 277 277 279 279 278 278 278 278 277 276 274 272 271 270 270
259 259 259 260 260 260 261 261 261 261 263 264 264 264 264 265 266 267 268 270 273 274 275 275 274 274 277 278 279 280 280 280 280 280 280 280 279 278 277 275 273 272 272 272
259 258 257 257 257 257 259 261 261 262 262 263 264 266 268 270 269 269 270 272 274 275 274 274 275 277 278 280 281 281 281 280 281 282 283 283 282 281 279 278 276 275 275 275
260 259 257 257 257 258 259 261 261 261 262 263 264 266 268 270 272 273 273 274 274 274 275 275 277 278 280 281 281 281 282 282 283 283 284 284 284 282 279 278 277 277 278 277
261 260 259 259 259 259 259 260 260 261 262 263 265 267 269 270 272 274 274 275 276 276 277 278 279 280 280 281 281 281 283 283 284 284 284 284 284 283 282 281 281 281 280 279
261 262 262 262 262 261 260 259 260 261 263 264 266 268 271 272 273 273 274 275 277 277 278 279 280 279 279 280 280 281 282 284 284 285 285 284 284 284 284 284 284 283 282 281
Height
5819 5821 5822 5824 5825 5826 5827 5828 5829 5830 5830 5831 5831 5831 5831 5831 5832 5832 5832 5832 5832 5832 5832 5832 5832 5832 5832 5832 5832 5831 5831 5831 5830 5830 5829 5829 5829 5829 5828 5828 5827 5827 5826 5825
5814 5815 5816 5818 5819 5820 5821 5823 5823 5824 5825 5825 5825 5826 5826 5826 5827 5827 5827 5828 5828 5828 5828 5828 5828 5828 5828 5828 5828 5828 5827 5827 5827 5827 5826 5826 5826 5826 5825 5825 5824 5823 5823 5822
5808 5809 5810 5812 5814 5815 5816 5817 5818 5818 5820 5819 5819 5820 5821 5821 5821 5822 5822 5822 5823 5823 5823 5823 5823 5823 5824 5824 5823 5823 5823 5823 5823 5823 5823 5823 5822 5822 5821 5821 5820 5820 5819 5818
5801 5803 5803 5808 5808 5808 5809 5810 5811 5812 5812 5813 5813 5814 5814 5815 5815 5816 5816 5817 5817 5817 5817 5818 5818 5818 5818 5819 5819 5819 5819 5819 5819 5819 5818 5818 5818 5817 5817 5817 5816 5816 5815 5815
5795 5795 5797 5800 5801 5801 5802 5804 5804 5805 5806 5806 5807 5807 5808 5809 5809 5810 5810 5811 5811 5811 5811 5812 5812 5812 5813 5813 5813 5813 5813 5814 5814 5814 5814 5813 5813 5813 5813 5813 5812 5812 5811 5811
5787 5788 5790 5794 5794 5794 5796 5796 5797 5798 5798 5799 5800 5801 5802 5802 5802 5803 5803 5804 5804 5805 5805 5806 5806 5806 5807 5807 5807 5808 5808 5808 5808 5808 5808 5808 5808 5808 5808 5808 5807 5807 5806 5806
5779 5779 5782 5785 5786 5786 5788 5790 5790 5790 5791 5792 5793 5795 5795 5795 5796 5796 5796 5797 5797 5798 5799 5799 5799 5800 5800 5800 5801 5801 5801 5801 5802 5802 5802 5802 5802 5803 5803 5803 5802 5802 5801 5801
5771 5772 5776 5776 5777 5778 5780 5781 5782 5782 5784 5785 5786 5787 5788 5788 5789 5789 5789 5790 5790 5791 5791 5792 5792 5793 5793 5793 5794 5794 5795 5795 5795 5795 5796 5796 5796 5796 5797 5797 5796 5796 5795 5795
5764 5766 5767 5767 5768 5769 5770 5772 5773 5774 5776 5777 5778 5779 5780 5781 5782 5782 5783 5783 5783 5784 5784 5784 5785 5785 5785 5786 5786 5787 5787 5788 5788 5788 5788 5789 5789 5789 5790 5790 5790 5790 5789 5789
5755 5757 5757 5758 5759 5760 5761 5763 5764 5766 5767 5768 5770 5771 5772 5773 5774 5775 5775 5776 5776 5776 5776 5777 5777 5777 5778 5778 5778 5779 5780 5780 5780 5781 5781 5781 5782 5782 5782 5782 5782 5782 5782 5782
5747 5749 5749 5750 5751 5752 5753 5754 5756 5757 5758 5760 5761 5762 5763 5764 5766 5767 5767 5768 5768 5769 5769 5769 5769 5769 5769 5770 5770 5771 5771 5772 5772 5772 5773 5773 5773 5774 5774 5775 5775 5775 5774 5774
5739 5741 5741 5743 5743 5744 5745 5746 5747 5749 5750 5751 5751 5753 5754 5755 5757 5758 5759 5760 5760 5760 5761 5761 5761 5761 5761 5762 5762 5762 5763 5763 5763 5763 5764 5764 5764 5765 5765 5766 5766 5766 5766 5766
5731 5732 5733 5734 5735 5736 5736 5737 5738 5739 5740 5741 5742 5743 5745 5746 5748 5749 5750 5751 5752 5752 5752 5752 5752 5752 5752 5752 5753 5753 5753 5753 5754 5754 5754 5755 5755 5755 5756 5756 5757 5757 5757 5757
5723 5724 5724 5726 5727 5728 5728 5729 5729 5730 5731 5732 5733 5734 5736 5737 5738 5740 5741 5742 5743 5743 5743 5743 5743 5743 5743 5743 5744 5744 5744 5744 5744 5744 5745 5745 5745 5746 5746 5746 5747 5747 5747 5747
5715 5716 5716 5717 5718 5719 5719 5720 5720 5721 5722 5723 5724 5725 5727 5728 5730 5731 5732 5733 5733 5734 5734 5734 5734 5734 5734 5734 5734 5734 5734 5734 5735 5735 5735 5735 5735 5736 5736 5736 5737 5737 5737 5737
5706 5707 5708 5709 5709 5710 5710 5711 5712 5712 5713 5714 5715 5717 5718 5719 5721 5722 5723 5724 5724 5725 5725 5725 5725 5725 5725 5725 5725 5724 5725 5725 5725 5725 5725 5725 5725 5725 5726 5726 5726 5726 5726 5726
5698 5699 5700 5701 5701 5702 5702 5702 5703 5703 5704 5705 5707 5708 5709 5710 5712 5713 5713 5714 5714 5715 5715 5716 5716 5715 5715 5715 5715 5715 5714 5714 5714 5714 5714 5714 5715 5715 5715 5714 5714 5715 5715 5715
5690 5691 5692 5692 5693 5693 5694 5694 5694 5695 5696 5697 5698 5699 5700 5701 5702 5703 5704 5704 5705 5705 5706 5706 5706 5706 5705 5705 5705 5704 5704 5704 5704 5704 5703 5703 5703 5703 5703 5702 5702 5702 5702 5702
5682 5683 5684 5684 5685 5685 5686 5686 5686 5687 5688 5688 5689 5690 5691 5692 5693 5694 5694 5695 5695 5696 5696 5695 5695 5695 5695 5694 5694 5693 5693 5693 5693 5692 5692 5692 5691 5691 5690 5690 5690 5690 5690 5689
5674 5675 5676 5676 5677 5677 5678 5678 5679 5679 5680 5680 5681 5681 5682 5683 5684 5684 5685 5685 5686 5686 5686 5685 5685 5685 5684 5684 5683 5682 5682 5682 5681 5681 5680 5680 5679 5678 5677 5677 5677 5676 5676 5676
5665 5666 5667 5668 5668 5669 5669 5670 5670 5671 5671 5672 5672 5673 5674 5674 5675 5675 5675 5676 5676 5675 5675 5675 5675 5674 5674 5673 5672 5672 5671 5670 5670 5669 5668 5668 5667 5666 5665 5664 5663 5663 5663 5663
5657 5657 5658 5659 5660 5660 5661 5661 5662 5663 5663 5663 5664 5664 5665 5665 5665 5666 5666 5666 5666 5666 5665 5665 5664 5664 5663 5662 5662 5661 5660 5659 5658 5657 5656 5655 5654 5653 5652 5651 5650 5650 5649 5649
5647 5648 5649 5650 5651 5652 5652 5653 5654 5654 5655 5655 5655 5656 5656 5656 5656 5656 5657 5656 5656 5656 5655 5655 5654 5654 5653 5652 5651 5650 5649 5648 5647 5646 5645 5643 5642 5640 5639 5638 5637 5636 5636 5636
5638 5639 5640 5641 5642 5643 5644 5644 5645 5646 5646 5646 5647 5647 5647 5647 5647 5647 5647 5647 5646 5646 5645 5645 5644 5644 5642 5641 5640 5639 5638 5637 5636 5634 5633 5631 5630 5628 5626 5625 5624 5623 5622 5622
5629 5630 5631 5632 5633 5634 5635 5636 5636 5637 5637 5637 5638 5638 5638 5638 5638 5638 5637 5637 5636 5635 5635 5634 5634 5633 5632 5631 5629 5628 5627 5625 5624 5622 5621 5619 5617 5615 5614 5613 5611 5610 5609 5608
5620 5621 5622 5623 5624 5625 5625 5626 5627 5627 5628 5628 5629 5629 5629 5629 5628 5628 5627 5627 5626 5625 5624 5624 5623 5622 5621 5619 5618 5617 5615 5614 5612 5610 5608 5606 5605 5603 5601 5600 5598 5596 5595 5593
5610 5611 5612 5613 5614 5614 5615 5616 5617 5618 5618 5618 5619 5619 5618 5618 5618 5617 5617 5616 5616 5615 5614 5613 5612 5611 5609 5608 5606 5605 5603 5602 5600 5598 5596 5594 5592 5590 5588 5587 5585 5583 5581 5579